Theta_e
278 279 277 276 276 277 275 275 275 275 275 275 274 275 275 276 276 276 276 276 276 276 277 277 277 277 278 278 278 279 279 279 279 280 281 282 281 281 281 281 281 283
277 277 278 276 276 276 275 275 274 274 274 274 274 275 275 275 275 275 275 275 275 275 276 276 276 276 276 277 277 277 277 278 278 280 279 280 280 280 280 280 281 283
276 276 275 275 274 274 274 275 274 274 274 274 274 275 275 275 274 275 275 275 274 275 275 275 275 275 276 276 276 276 276 276 277 278 278 278 279 279 279 281 282 282
275 275 275 275 274 274 274 273 273 273 274 273 273 274 275 275 274 274 274 275 274 274 274 275 274 275 275 275 275 275 276 276 277 277 277 278 278 279 279 280 281 281
275 275 274 274 274 274 274 273 273 273 273 273 273 274 274 273 273 273 273 273 273 273 274 273 274 274 274 274 274 274 275 275 276 277 277 277 278 279 279 280 279 279
274 274 274 274 274 273 273 272 272 272 272 272 272 273 273 273 272 272 273 272 272 273 273 273 273 273 273 273 273 274 274 274 275 276 276 276 277 278 279 279 279 279
273 273 273 273 273 273 272 272 272 273 272 272 272 272 272 272 272 272 272 272 272 273 272 272 272 272 273 273 273 273 273 274 274 275 276 276 278 277 278 278 278 278
273 273 273 273 272 273 272 272 272 272 272 272 271 272 272 272 272 272 272 272 272 272 272 272 272 272 272 272 272 272 272 274 274 274 275 276 277 276 277 278 278 277
273 273 272 272 272 272 272 272 272 271 272 271 271 271 272 272 272 271 271 271 271 271 271 271 271 271 272 272 272 272 272 272 274 275 276 276 276 276 276 277 277 277
273 272 272 272 271 272 271 272 271 271 272 271 271 271 271 271 272 271 271 271 271 271 271 271 271 271 271 271 271 272 272 272 274 276 276 276 276 276 276 277 276 276
272 272 271 271 271 271 271 271 271 270 271 271 271 270 271 271 271 271 271 270 270 270 270 270 270 271 271 271 271 272 272 273 275 276 276 276 276 276 277 276 276 276
272 272 271 271 272 271 271 271 271 270 270 270 271 270 270 270 270 270 271 270 270 270 270 270 270 270 270 270 271 272 273 274 276 276 276 276 276 276 276 277 276 276
272 272 272 271 271 271 271 271 271 270 270 270 270 270 270 270 270 270 270 270 270 270 270 270 270 270 270 270 271 273 274 275 275 275 275 276 276 276 276 277 276 276
272 272 271 271 271 271 271 271 270 270 270 270 270 269 269 269 269 269 269 270 270 269 270 270 270 270 270 271 272 274 275 275 275 275 275 275 275 276 276 276 275 275
272 272 271 271 271 271 271 271 270 269 269 269 269 269 269 269 269 269 269 269 269 269 269 270 270 270 270 272 273 274 275 275 275 275 275 275 275 275 275 275 274 274
272 271 271 270 271 270 270 270 269 269 269 269 269 269 269 269 269 268 268 268 268 268 268 269 269 269 272 275 276 275 275 275 275 275 275 274 274 274 274 273 273 274
271 271 270 270 270 270 270 269 269 269 268 268 268 268 268 268 268 268 268 268 268 267 267 268 268 269 273 275 276 277 276 274 274 274 274 274 274 273 272 272 273 274
271 270 270 270 270 269 269 269 268 268 268 268 267 267 267 268 267 267 267 267 267 267 267 267 268 271 273 275 276 277 277 275 274 274 274 273 273 272 272 272 272 273
271 270 269 269 269 269 269 268 268 268 267 267 267 267 267 267 267 267 267 267 267 266 266 267 267 270 273 275 275 276 276 276 274 273 272 272 272 272 272 271 272 272
270 270 269 269 269 269 268 268 268 267 267 267 267 267 266 266 266 266 266 266 266 266 266 266 267 270 273 274 275 275 276 276 273 272 272 272 272 272 271 271 271 271
270 269 269 268 269 268 268 267 267 267 267 267 266 266 265 265 265 265 266 266 266 266 265 265 266 270 272 273 274 275 276 275 272 272 271 271 271 272 272 271 271 272
269 269 268 268 268 268 267 267 267 267 266 266 265 265 265 265 265 266 265 265 265 265 265 265 266 270 271 273 274 275 275 272 271 271 270 271 271 271 271 272 272 272
269 268 267 267 267 267 266 266 266 265 265 265 264 264 264 264 264 264 264 264 264 264 264 264 265 268 271 272 273 274 273 270 270 270 270 270 270 270 271 271 272 272
269 268 267 267 266 266 266 266 265 265 264 264 263 263 263 263 263 263 263 263 263 263 264 264 264 267 270 271 272 273 272 270 270 269 269 269 269 270 271 271 272 273
268 267 267 266 266 266 265 265 264 264 263 263 263 263 263 263 262 262 262 263 263 263 264 264 264 265 268 270 271 272 271 270 270 269 268 269 269 269 270 271 271 272
267 267 267 266 266 265 265 264 264 263 263 263 263 262 262 262 262 261 261 262 262 262 263 263 263 263 265 269 271 272 272 270 269 268 267 268 269 269 269 270 270 270
Wind_Speed
8 7 8 8 8 8 8 8 7 7 7 7 7 7 7 7 8 8 8 8 9 8 8 8 8 8 8 8 8 7 7 8 8 7 8 7 7 8 8 9 8 7
9 9 8 7 7 7 6 6 6 6 6 6 6 6 6 6 7 7 8 8 8 7 7 7 7 8 7 7 8 7 7 7 8 7 8 9 8 8 8 9 7 7
8 8 7 8 7 7 7 5 6 6 6 6 6 6 6 6 7 7 7 8 8 9 8 8 8 8 8 8 8 7 7 7 7 8 8 8 8 7 8 7 6 9
9 8 8 8 8 7 7 7 7 7 6 7 8 6 7 7 7 8 8 9 8 8 8 8 8 8 8 8 7 7 7 7 7 7 7 7 7 6 7 6 7 7
7 7 6 6 5 6 6 7 7 6 6 5 5 6 6 7 7 7 7 7 6 7 7 7 7 7 7 7 7 6 6 6 6 6 6 6 6 6 6 7 7 7
5 5 5 5 5 5 6 6 5 5 5 6 6 5 5 6 6 7 8 8 8 8 8 8 8 8 8 8 7 7 6 6 7 7 7 6 6 6 5 6 7 7
6 6 6 5 5 5 6 6 6 6 5 5 4 6 7 7 7 8 8 7 8 8 8 8 8 8 8 7 7 7 7 7 7 8 7 6 6 7 7 7 7 8
5 4 4 4 4 4 5 4 5 5 4 5 5 5 4 5 6 5 6 6 6 7 7 7 7 7 7 7 7 7 7 6 7 7 6 6 7 7 8 7 8 9
3 3 3 3 4 3 4 3 3 3 3 4 4 4 4 3 4 5 6 6 6 7 7 7 8 8 7 7 7 8 8 7 8 7 7 8 9 10 9 9 10 10
2 2 3 2 2 1 2 2 2 2 2 3 3 3 5 5 4 5 6 6 7 8 8 8 8 8 8 7 8 8 8 9 7 8 9 9 10 10 10 10 10 10
1 1 2 2 1 1 2 2 2 3 3 5 5 6 5 5 6 6 6 7 8 8 8 9 9 8 8 8 8 7 8 8 9 9 9 10 10 10 10 10 11 11
1 1 1 1 1 1 2 3 4 6 6 4 4 5 6 5 6 6 6 7 7 7 7 8 8 8 8 8 8 8 8 7 10 10 10 10 10 10 10 10 10 11
2 1 1 0 0 2 3 3 4 4 3 3 4 4 4 5 5 5 6 5 6 7 7 8 8 8 8 8 8 8 10 11 11 11 10 9 9 10 10 10 10 9
3 2 1 1 1 2 2 2 2 2 2 2 3 4 4 5 5 6 6 5 6 6 7 7 7 7 8 7 8 11 11 11 11 11 11 11 11 11 10 10 9 9
3 2 1 1 2 2 2 1 2 2 2 3 3 3 4 4 4 5 5 6 7 7 7 7 7 8 6 8 11 12 12 11 11 11 11 11 11 11 10 10 9 9
3 2 2 2 1 1 1 1 2 2 2 3 3 3 3 3 4 4 4 6 6 7 7 7 7 6 10 19 17 12 12 11 11 11 11 11 11 11 11 10 10 10
3 2 2 0 1 2 1 1 2 2 2 2 3 3 4 4 5 5 5 6 6 7 8 7 7 7 17 18 19 20 14 12 12 11 11 11 10 10 11 12 11 12
3 2 1 2 2 1 0 0 1 2 2 3 3 4 5 5 5 5 6 6 6 6 7 7 7 12 17 18 19 20 18 13 12 11 10 10 9 10 10 10 12 11
3 2 2 2 2 1 0 1 2 3 3 4 5 5 5 5 6 6 6 6 6 7 8 8 8 13 17 19 19 20 20 17 11 11 10 10 10 11 11 11 11 11
3 3 3 2 1 0 0 1 2 3 3 3 4 4 5 5 6 6 6 6 6 7 7 8 8 12 17 19 19 20 20 18 11 11 10 10 11 11 11 11 11 11
4 4 3 2 0 0 0 1 2 2 3 3 3 4 5 5 5 6 6 6 7 7 7 8 7 15 17 19 19 21 21 17 10 10 10 10 10 10 11 12 12 11
5 4 3 2 1 0 0 2 2 2 1 2 2 4 4 4 5 4 6 7 7 8 8 8 8 15 17 19 21 20 21 11 10 11 11 11 11 11 11 11 11 11
5 4 3 2 2 1 1 2 2 1 1 1 2 4 5 4 4 4 5 6 7 7 8 8 9 13 18 19 20 21 16 11 11 10 10 11 11 12 11 11 11 11
6 5 4 3 2 2 2 2 1 1 1 0 2 4 4 4 4 5 6 5 7 7 7 9 9 12 18 19 19 20 17 12 10 11 11 11 12 11 11 10 12 18
6 5 4 4 3 3 2 3 2 2 1 1 2 3 5 4 4 5 6 5 5 7 10 10 9 11 16 18 19 19 15 11 11 10 12 12 11 12 12 11 12 13
5 6 5 4 4 3 3 2 1 1 2 2 3 3 4 5 4 4 6 6 6 6 6 7 9 10 11 18 18 18 18 12 10 10 11 13 12 12 13 12 12 12
Wind_Direction
46 49 52 45 45 44 37 34 29 30 29 24 21 13 11 10 1 6 2 7 8 7 7 6 5 6 4 1 360 358 1 1 354 347 347 346 352 353 345 338 332 330
50 49 52 51 48 45 40 41 34 33 27 24 16 11 7 7 4 5 0 3 4 3 4 4 3 3 2 1 357 358 356 358 355 350 351 349 351 344 336 329 323 339
54 53 52 50 47 41 41 37 39 31 29 19 16 14 9 4 2 3 4 4 0 0 2 2 2 0 0 359 357 359 354 356 354 352 352 349 342 334 329 321 337 343
48 48 43 42 38 33 29 32 29 24 19 19 12 4 9 1 360 358 1 3 359 354 355 355 356 353 354 353 353 355 350 354 345 346 347 341 335 333 329 335 338 333
48 43 42 39 39 33 33 33 27 22 19 10 3 3 8 358 357 356 355 354 354 346 350 349 349 351 349 349 348 348 348 347 337 341 334 334 325 334 335 339 332 330
57 55 47 44 36 36 32 35 23 21 12 15 4 354 4 356 359 357 356 355 353 351 352 352 351 351 351 350 347 350 345 342 340 337 334 332 330 336 331 332 328 333
43 40 35 33 35 33 32 24 17 13 14 7 354 7 360 357 360 354 352 348 346 346 347 344 344 344 345 343 344 340 341 336 334 333 329 328 332 334 332 334 331 329
44 36 30 24 31 28 26 23 9 9 352 0 1 351 0 342 343 345 343 340 337 338 339 337 338 338 338 339 335 334 331 331 325 319 317 322 333 332 331 330 329 324
63 48 30 32 32 25 21 14 5 356 348 357 338 337 340 347 341 338 338 337 340 341 340 339 339 337 336 336 333 330 328 322 319 315 330 336 334 330 329 327 325 321
67 57 43 35 35 15 14 359 357 340 322 347 343 350 350 343 345 346 345 348 345 343 342 338 338 337 334 333 329 327 323 319 313 329 333 332 329 326 325 325 321 318
90 86 60 34 31 16 3 355 352 2 6 9 357 353 351 350 353 355 351 350 348 341 338 338 335 332 331 329 325 320 316 311 325 331 331 327 325 321 320 320 319 316
145 103 55 359 352 349 359 12 15 10 3 352 349 344 348 355 351 345 347 338 338 334 332 329 328 327 327 323 321 318 314 319 328 328 326 324 319 319 317 314 315 317
179 199 194 257 27 15 19 18 12 354 338 331 336 347 346 346 343 339 335 334 328 332 332 329 328 327 325 324 319 321 329 330 328 325 322 319 317 315 313 311 312 313
203 200 192 79 49 36 26 13 341 316 314 325 339 349 347 342 340 336 331 332 331 333 329 328 327 327 325 321 323 331 330 328 326 322 320 317 315 314 314 313 313 313
189 177 142 101 52 36 0 324 304 302 321 340 351 343 342 334 335 335 335 338 337 334 333 335 333 330 323 327 330 330 328 325 322 319 316 315 314 313 313 314 313 305
168 154 135 61 54 330 260 267 290 321 332 345 348 337 329 335 332 336 341 339 337 334 335 333 330 324 324 329 330 329 327 322 318 315 316 314 313 314 314 313 309 303
149 130 90 101 235 236 232 272 330 338 341 339 343 335 340 339 330 332 338 338 336 333 330 327 323 317 324 329 328 328 326 320 318 316 314 314 313 315 314 312 310 308
130 124 159 212 221 228 241 297 330 344 343 341 333 346 346 336 340 339 335 336 333 330 324 318 315 316 324 325 326 326 325 323 318 315 315 314 314 313 310 310 311 312
146 167 196 209 221 214 259 352 357 346 348 347 344 342 337 339 333 333 333 332 334 329 323 318 311 316 321 324 324 323 323 323 318 317 316 312 312 311 311 312 314 313
171 186 199 209 211 200 18 2 345 334 336 329 333 334 335 325 323 322 321 329 327 322 316 311 310 310 318 319 320 321 323 325 324 320 313 311 311 311 309 310 311 310
184 191 198 203 200 126 354 321 312 307 325 326 336 324 318 314 315 316 320 322 319 317 310 306 303 309 315 317 318 323 326 330 324 318 314 310 310 307 307 306 305 304
186 188 190 174 183 184 246 292 285 299 309 329 331 307 298 303 303 309 314 317 313 310 308 304 302 309 313 317 321 325 328 329 322 317 315 312 309 309 306 303 302 305
184 183 177 172 175 188 239 243 256 268 298 343 310 300 304 305 307 316 311 308 308 308 308 308 306 309 314 319 322 325 327 323 320 316 313 312 309 306 304 302 305 305
183 170 171 171 177 208 220 230 226 257 245 261 298 300 298 299 307 303 300 301 303 302 307 308 305 309 316 318 321 322 324 321 318 316 312 310 306 305 305 305 307 307
173 166 166 173 190 208 203 211 234 240 241 275 261 279 286 292 297 294 294 295 294 300 302 304 304 308 314 316 318 320 321 318 317 315 311 307 308 308 307 306 305 306
166 164 169 173 193 199 195 199 197 239 278 273 281 277 280 290 286 285 289 292 299 297 301 305 307 305 308 313 316 316 318 318 316 313 309 308 307 308 308 308 308 305